Home > Time Zones > World Clock > Weather > Russia > Ufa > Past weeks

Flag for Russia Weather past 2 weeks in Ufa, Russia

Now
70 °F

Partly sunny.


Feels Like: 70 °F
Forecast: 63 / 77 °F
Wind: 3 mph from Northeast

Location: Ufa

Current Time: Aug 22, 2014 at 11:58:15 AM

Latest Report: Aug 22, 2014 at 11:30 AM


Visibility: N/A

Pressure: 29.89 "Hg

Humidity: 83%

Dew point: 64 °F

Location of UfaLocation

Historic Weather in Ufa — Graph

°F

Ufa temperature yesterday

Maximum temperature yesterday: 81 °F (at 2:30 PM)
Minimum temperature yesterday: 66 °F (at 5:00 AM)
Average temperature yesterday: 72 °F

Past Weeks' High & Low Weather Summary

 TemperatureHumidityPressure
High93 °F (Aug 17, 3:00 PM)100% (Aug 8, 4:00 AM)30.07 "Hg (Aug 8, 4:00 AM)
Low46 °F (Aug 14, 7:00 AM)21% (Aug 17, 3:30 PM)29.56 "Hg (Aug 11, 6:00 AM)
Average70 °F72%29.85 "Hg
* Reported Aug 7 10:00 AM — Aug 22 10:30 AM, Ufa, Weather by CustomWeather, © 2014

Note: Actual official high and low records may vary slightly from our data, if they occured in-between our weather recording intervals... More about our weather records

Advertising

Ufa weather history for previous 24 hours

 ConditionsComfort  
Time TempWeatherWind HumidityBarometerVisibility
10:30 AM
Aug 22
68 °FFog.3 mph83%29.89 "Hg2 mi
10:00 AM66 °FFog.3 mph88%29.89 "Hg2 mi
9:30 AM64 °FFog.1 mph94%29.89 "Hg2 mi
9:00 AM63 °FFog.6 mph100%29.89 "Hg2 mi
8:30 AM63 °FFog.6 mph94%29.89 "Hg2 mi
8:00 AM61 °FFog.6 mph100%29.89 "Hg2 mi
7:30 AM61 °FFog.6 mph100%29.89 "Hg2 mi
7:00 AM61 °FFog.3 mph100%29.89 "Hg1 mi
6:30 AM61 °FFog.6 mph100%29.89 "Hg1 mi
6:00 AM63 °FSprinkles. Passing clouds.3 mph100%29.89 "Hg2 mi
5:30 AM64 °FSprinkles. Overcast.3 mph94%29.92 "Hg2 mi
5:00 AM63 °FSprinkles. Overcast.No wind100%29.92 "HgN/A
4:30 AM64 °FSprinkles. Overcast.1 mph94%29.92 "HgN/A
4:00 AM64 °FSprinkles. Overcast.3 mph94%29.92 "HgN/A
3:30 AM64 °FOvercast.6 mph94%29.92 "HgN/A
3:00 AM64 °FOvercast.6 mph94%29.89 "HgN/A
2:30 AM64 °FOvercast.8 mph94%29.89 "HgN/A
2:00 AM64 °FOvercast.6 mph94%29.92 "HgN/A
1:30 AM64 °FOvercast.6 mph94%29.92 "HgN/A
1:00 AM66 °FOvercast.6 mph88%29.92 "HgN/A
12:30 AM66 °FOvercast.6 mph88%29.92 "HgN/A
12:00 AM66 °FOvercast.6 mph94%29.92 "HgN/A
11:30 PM
Aug 21
68 °FOvercast.3 mph88%29.92 "HgN/A
11:00 PM68 °FSprinkles. Overcast.3 mph88%29.92 "HgN/A
10:30 PM68 °FSprinkles. Passing clouds.3 mph88%29.92 "HgN/A
10:00 PM70 °FSprinkles. Passing clouds.6 mph83%29.95 "HgN/A
9:30 PM70 °FSprinkles. Partly sunny.3 mph83%29.92 "HgN/A
9:00 PM70 °FPartly sunny.3 mph83%29.92 "HgN/A
8:30 PM72 °FPartly sunny.6 mph78%29.92 "HgN/A
8:00 PM72 °FPartly sunny.6 mph83%29.92 "HgN/A
7:30 PM73 °FSprinkles. Partly sunny.8 mph74%29.92 "HgN/A
7:00 PM75 °FPartly sunny.10 mph69%29.92 "HgN/A
6:30 PM75 °FPartly sunny.10 mph69%29.92 "HgN/A
6:00 PM77 °FPartly sunny.10 mph65%29.92 "HgN/A
5:30 PM79 °FPartly sunny.8 mph65%29.92 "HgN/A
5:00 PM79 °FBroken clouds.6 mph65%29.89 "HgN/A
4:30 PM81 °FBroken clouds.6 mph62%29.89 "HgN/A
4:00 PM81 °FBroken clouds.3 mph62%29.89 "HgN/A
3:30 PM81 °FBroken clouds.3 mph62%29.89 "HgN/A
3:00 PM81 °FBroken clouds.3 mph58%29.89 "HgN/A
2:30 PM81 °FPartly sunny.6 mph62%29.89 "HgN/A
2:00 PM79 °FPartly sunny.6 mph65%29.89 "HgN/A
1:30 PM79 °FPartly sunny.3 mph65%29.89 "HgN/A
1:00 PM77 °FPartly sunny.6 mph69%29.89 "HgN/A
12:30 PM77 °FPartly sunny.3 mph65%29.89 "HgN/A
12:00 PM75 °FPartly sunny.6 mph74%29.89 "HgN/A
11:30 AM73 °FPartly sunny.8 mph78%29.89 "HgN/A
11:00 AM73 °FBroken clouds.8 mph78%29.89 "HgN/A
Weather by CustomWeather, © 2014

See weather overviewHow to use our weather pages